Santa Fe, NM

3:32 PM MST on December 07, 2016 (GMT -0700)
Santa Fe Municipal

Weather History for KSAF - November, 2011

Change the Weather History Date:

Saturday, November 26, 2011

  Actual Average Record
Temperature  
Mean Temperature 30 °F -  
Max Temperature 42 °F 59 °F 63 °F (1998)
Min Temperature 19 °F 24 °F 10 °F (2000)
Degree Days  
Heating Degree Days 34    
Moisture  
Dew Point 11 °F    
Average Humidity 45    
Maximum Humidity 74    
Minimum Humidity 19    
Precipitation  
Precipitation 0.00 in - - ()
Sea Level Pressure  
Sea Level Pressure 30.32 in    
Wind  
Wind Speed 11 mph (North)    
Max Wind Speed 28 mph    
Max Gust Speed 34 mph    
Visibility 10 miles    
Events      
Averages and records for this station are not official NWS values.
T = Trace of Precipitation, MM = Missing Value Source: NWS Daily Summary

Daily Weather History Graph

Daily Weather History Graph

Search for Another Location

Airport or City:

Trip Planner

Search our weather history database for the weather conditions in past years. The results will help you decide how hot, cold, wet, or windy it might be!

Date:

Astronomy

Nov. 26, 2011 Rise Set
Actual Time 6:50 AM MST 4:52 PM MST
Civil Twilight 6:22 AM MST 5:20 PM MST
Nautical Twilight 5:51 AM MST 5:51 PM MST
Astronomical Twilight 5:20 AM MST 6:22 PM MST
Moon 8:22 AM MST (11/26) 6:28 PM MST (11/26)
Length of Visible Light 10h 57m
Length of Day
10h 01m
Waxing Crescent, 3% of the Moon is Illuminated
Nov 26
Waxing Crescent
Dec 2
First Quarter
Dec 10
Full
Dec 17
Last Quarter
Dec 24
New

Hourly Weather History & Observations

Time (MST) Temp. Windchill Dew Point Humidity Pressure Visibility Wind Dir Wind Speed Gust Speed Precip Events Conditions
12:53 AM 32.0 °F 26.4 °F 21.0 °F 64% 29.99 in 10.0 mi North 5.8 mph - N/A   Clear
1:53 AM 30.9 °F 23.5 °F 21.0 °F 67% 30.01 in 10.0 mi North 8.1 mph - N/A   Clear
2:53 AM 34.0 °F 25.5 °F 21.0 °F 59% 30.04 in 10.0 mi North 11.5 mph - N/A   Clear
3:53 AM 33.1 °F 25.5 °F 19.0 °F 56% 30.06 in 10.0 mi NNW 9.2 mph - N/A   Clear
5:53 AM 30.0 °F 21.7 °F 18.0 °F 61% 30.19 in 10.0 mi North 9.2 mph - N/A   Clear
6:53 AM 28.0 °F 20.0 °F 17.1 °F 63% 30.27 in 10.0 mi North 8.1 mph - N/A   Clear
7:53 AM 33.1 °F 23.4 °F 12.9 °F 43% 30.29 in 10.0 mi North 13.8 mph - N/A   Clear
8:53 AM 34.0 °F 20.8 °F 6.1 °F 31% 30.35 in 10.0 mi North 27.6 mph 34.5 mph N/A   Clear
9:53 AM 35.1 °F 22.7 °F 6.1 °F 30% 30.37 in 10.0 mi North 25.3 mph 34.5 mph N/A   Clear
10:53 AM 37.0 °F 25.9 °F 6.1 °F 28% 30.38 in 10.0 mi North 23.0 mph 32.2 mph N/A   Clear
11:53 AM 39.9 °F 30.0 °F 6.1 °F 25% 30.38 in 10.0 mi North 21.9 mph 28.8 mph N/A   Clear
12:53 PM 41.0 °F 31.6 °F 3.0 °F 21% 30.36 in 10.0 mi North 20.7 mph 31.1 mph N/A   Clear
1:53 PM 42.1 °F 33.9 °F 1.9 °F 19% 30.35 in 10.0 mi North 17.3 mph 24.2 mph N/A   Clear
2:53 PM 42.1 °F 34.5 °F 1.9 °F 19% 30.35 in 10.0 mi North 15.0 mph - N/A   Clear
3:53 PM 41.0 °F 33.5 °F 1.0 °F 19% 30.37 in 10.0 mi NNW 13.8 mph - N/A   Clear
5:53 PM 28.9 °F 22.8 °F 8.1 °F 41% 30.46 in 10.0 mi NNW 5.8 mph - N/A   Clear
7:53 PM 26.1 °F 18.4 °F 10.0 °F 51% 30.49 in 10.0 mi North 6.9 mph - N/A   Clear
8:53 PM 28.9 °F - 9.0 °F 43% 30.49 in 10.0 mi Calm Calm - N/A   Clear
9:53 PM 21.9 °F 14.5 °F 10.9 °F 63% 30.53 in 10.0 mi NNE 5.8 mph - N/A   Clear
10:53 PM 19.0 °F 12.3 °F 12.0 °F 74% 30.54 in 10.0 mi NNW 4.6 mph - N/A   Clear
11:53 PM 21.0 °F 14.6 °F 10.9 °F 65% 30.52 in 10.0 mi NNW 4.6 mph - N/A   Clear